Location: Altleiningen
(49.5078°N, 8.0741°E)
Time: 23:52:19
(UTC+00:00)

Ariane Rocket - Pass Details

Date: 03 March 2021
Orbit: 759 x 771 km, 98.7° (Epoch: 13 April)

Event Time Altitude Azimuth Distance (km) Brightness Sun altitude
Exits shadow 18:42:04 18° 130° (SE) 1,821 4.5 -15.1°
Maximum altitude 18:45:30 43° 66° (ENE) 1,071 3.4 -15.6°
Drops below altitude 10° 18:50:20 10° 356° (N) 2,324 5.7 -16.4°
Sets 18:52:43 0° 350° (N) 3,254 6.5 -16.8°
